FW7777 Weather Reports


Display with metric or nautical units.
time (UTC)temp
F
wind
direction
speed
MPH
gust
MPH
rain 1hr
in
rain 24hr
in
rain mn
in
humidity
%
barometer
mb
20260506122404 113 0.0 0.0 0.00 0.00 0.00 100 1006.7
20260506121904 113 0.0 0.0 0.00 0.00 0.00 100 1006.8
20260506121403 110 0.0 0.0 0.00 0.00 0.00 100 1006.9
20260506120904 114 0.0 0.0 0.00 0.00 0.00 100 1006.8
20260506120405 113 0.0 0.0 0.00 0.00 0.00 100 1006.9
20260506115905 113 0.0 0.0 0.00 0.00 0.00 100 1007.0
20260506115405 111 0.0 0.0 0.00 0.00 0.00 100 1007.1
20260506114904 106 0.0 0.0 0.00 0.00 0.00 100 1007.6
20260506114409 111 0.0 0.0 0.00 0.00 0.00 100 1007.3
20260506113405 112 0.0 0.0 0.00 0.00 0.00 100 1007.4
20260506112910 111 0.0 0.0 0.00 0.00 0.00 100 1007.4
20260506111905 111 0.0 0.0 0.00 0.00 0.00 100 1007.6
20260506111410 110 0.0 0.0 0.00 0.00 0.00 100 1007.7
20260506110406 111 0.0 0.0 0.00 0.00 0.00 100 1007.6
20260506105905 109 0.0 0.0 0.00 0.00 0.00 100 1007.8
20260506105405 107 0.0 0.0 0.00 0.00 0.00 100 1008.0
20260506104905 103 0.0 0.0 0.00 0.00 0.00 100 1008.2
20260506104404 99 0.0 0.0 0.00 0.00 0.00 100 1008.4
20260506103905 97 0.0 0.0 0.00 0.00 0.00 100 1008.7
20260506103405 94 0.0 0.0 0.00 0.00 0.00 100 1008.6
20260506102904 90 0.0 0.0 0.00 0.00 0.00 100 1008.9
20260506102410 88 0.0 0.0 0.00 0.00 0.00 100 1009.2
20260506100907 83 0.0 0.0 0.00 0.00 0.00 100 1009.5
20260506100406 85 0.0 0.0 0.00 0.00 0.00 100 1009.6
20260506095905 84 0.0 0.0 0.00 0.00 0.00 100 1009.7
20260506095405 83 0.0 0.0 0.00 0.00 0.00 100 1009.8
20260506094907 82 0.0 0.0 0.00 0.00 0.00 100 1009.8
20260506094411 82 0.0 0.0 0.00 0.00 0.00 100 1009.8
20260506093410 82 0.0 0.0 0.00 0.00 0.00 100 1009.9
20260506091910 80 0.0 0.0 0.00 0.00 0.00 100 1010.2
20260506085904 81 0.0 0.0 0.00 0.00 0.00 100 1010.1
20260506085409 80 0.0 0.0 0.00 0.00 0.00 100 1010.2
20260506084405 80 0.0 0.0 0.00 0.00 0.00 100 1010.3
20260506083905 80 0.0 0.0 0.00 0.00 0.00 100 1010.3
20260506083410 80 0.0 0.0 0.00 0.00 0.00 100 1010.2
20260506082404 80 0.0 0.0 0.00 0.00 0.00 100 1010.1
20260506081904 80 0.0 0.0 0.00 0.00 0.00 100 1010.2
20260506081405 79 0.0 0.0 0.00 0.00 0.00 100 1010.3
20260506080909 79 0.0 0.0 0.00 0.00 0.00 100 1010.2
20260506073406 77 0.0 0.0 0.00 0.00 0.00 100 1010.3
20260506072904 77 0.0 0.0 0.00 0.00 0.00 100 1010.3
20260506072404 76 0.0 0.0 0.00 0.00 0.00 100 1010.4
20260506071905 76 0.0 0.0 0.00 0.00 0.00 100 1010.4
20260506071405 75 0.0 0.0 0.00 0.00 0.00 100 1010.4
20260506070905 75 0.0 0.0 0.00 0.00 0.00 100 1010.4
20260506070405 74 0.0 0.0 0.00 0.00 0.00 100 1010.4
20260506062405 71 0.0 0.0 0.00 0.00 0.00 100 1010.7
20260506061905 71 0.0 0.0 0.00 0.00 0.00 100 1010.8
20260506061405 70 0.0 0.0 0.00 0.00 0.00 100 1010.7
20260506060904 70 0.0 0.0 0.00 0.00 0.00 100 1010.8
20260506060405 69 0.0 0.0 0.00 0.00 0.00 100 1010.9
20260506051409 67 0.0 0.0 0.00 0.00 0.00 100 1010.7
20260506050406 66 0.0 0.0 0.00 0.00 0.00 100 1010.7
20260506043905 64 0.0 0.0 0.00 0.00 0.00 100 1010.7
20260506043405 63 0.0 0.0 0.00 0.00 0.00 100 1010.7
20260506042905 62 0.0 0.0 0.00 0.00 0.00 100 1010.6
20260506042405 62 0.0 0.0 0.00 0.00 0.00 100 1010.6
20260506041904 61 0.0 0.0 0.00 0.00 0.00 100 1010.7
20260506041408 61 0.0 0.0 0.00 0.00 0.00 100 1010.6
20260506035905 61 0.0 0.0 0.00 0.00 0.00 100 1010.4
20260506035405 60 0.0 0.0 0.00 0.00 0.00 100 1010.4
20260506034906 60 0.0 0.0 0.00 0.00 0.00 100 1010.5
20260506034406 59 0.0 0.0 0.00 0.00 0.00 100 1010.5
20260506033909 58 0.0 0.0 0.00 0.00 0.00 100 1010.5
20260506032909 57 0.0 0.0 0.00 0.00 0.00 100 1010.5
20260506031909 57 0.0 0.0 0.00 0.00 0.00 100 1010.6
20260506030405 59 0.0 0.0 0.00 0.00 0.00 100 1010.4
20260506025905 60 0.0 0.0 0.00 0.00 0.00 100 1010.1
20260506025409 60 0.0 0.0 0.00 0.00 0.00 100 1009.9
20260506024405 61 0.0 0.0 0.00 0.00 0.00 100 1009.8
20260506023905 60 0.0 0.0 0.00 0.00 0.00 100 1009.6
20260506023410 60 0.0 0.0 0.00 0.00 0.00 100 1009.6
20260506022905 60 0.0 0.0 0.00 0.00 0.00 100 1009.7
20260506022406 60 0.0 0.0 0.00 0.00 0.00 100 1009.6
20260506021905 60 0.0 0.0 0.00 0.00 0.00 100 1009.6
20260506021405 60 0.0 0.0 0.00 0.00 0.00 100 1009.5
20260506020904 60 0.0 0.0 0.00 0.00 0.00 100 1009.5
20260506020404 60 0.0 0.0 0.00 0.00 0.00 100 1009.5
20260506015904 60 0.0 0.0 0.00 0.00 0.00 100 1009.6
20260506015409 60 0.0 0.0 0.00 0.00 0.00 100 1009.5
20260506013907 61 0.0 0.0 0.00 0.00 0.00 100 1009.5
20260506013411 61 0.0 0.0 0.00 0.00 0.00 100 1009.5
20260506012408 60 0.0 0.0 0.00 0.00 0.00 100 1009.4
20260506011906 60 0.0 0.0 0.00 0.00 0.00 100 1009.5
20260506011404 60 0.0 0.0 0.00 0.00 0.00 100 1009.5
20260506010905 60 0.0 0.0 0.00 0.00 0.00 100 1009.5
20260506010405 60 0.0 0.0 0.00 0.00 0.00 100 1009.5
20260506005904 60 0.0 0.0 0.00 0.00 0.00 100 1009.5
20260506005409 60 0.0 0.0 0.00 0.00 0.00 100 1009.5
20260506004405 60 0.0 0.0 0.00 0.00 0.00 100 1009.5
20260506003905 61 0.0 0.0 0.00 0.00 0.00 100 1009.4
20260506003405 61 0.0 0.0 0.00 0.00 0.00 100 1009.4
20260506002904 61 0.0 0.0 0.00 0.00 0.00 100 1009.4
20260506002404 61 0.0 0.0 0.00 0.00 0.00 100 1009.3
20260506001904 61 0.0 0.0 0.00 0.00 0.00 100 1009.2
20260506001405 61 0.0 0.0 0.00 0.00 0.00 100 1009.3
20260506000904 61 0.0 0.0 0.00 0.00 0.00 100 1009.2
20260506000408 61 0.0 0.0 0.00 0.00 0.00 100 1009.3
20260505235409 61 0.0 0.0 0.00 0.00 0.00 100 1009.3
20260505234404 61 0.0 0.0 0.00 0.00 0.00 100 1009.4
20260505233904 61 0.0 0.0 0.00 0.00 0.00 100 1009.4
20260505233404 62 0.0 0.0 0.00 0.00 0.00 100 1009.3
20260505232909 62 0.0 0.0 0.00 0.00 0.00 100 1009.4
20260505231904 62 0.0 0.0 0.00 0.00 0.00 100 1009.3
20260505231405 62 0.0 0.0 0.00 0.00 0.00 100 1009.3
20260505230905 62 0.0 0.0 0.00 0.00 0.00 100 1009.4
20260505230410 62 0.0 0.0 0.00 0.00 0.00 100 1009.5
20260505225904 62 0.0 0.0 0.00 0.00 0.00 100 1009.4
20260505225408 62 0.0 0.0 0.00 0.00 0.00 100 1009.5
20260505224404 63 0.0 0.0 0.00 0.00 0.00 100 1009.6
20260505223910 63 0.0 0.0 0.00 0.00 0.00 100 1009.6
20260505221904 63 0.0 0.0 0.00 0.00 0.00 100 1009.7
20260505221404 64 0.0 0.0 0.00 0.00 0.00 100 1009.7
20260505220905 64 0.0 0.0 0.00 0.00 0.00 100 1009.8
20260505220405 64 0.0 0.0 0.00 0.00 0.00 100 1009.7
20260505215904 64 0.0 0.0 0.00 0.00 0.00 100 1009.8
20260505215405 64 0.0 0.0 0.00 0.00 0.00 100 1009.8
20260505214909 64 0.0 0.0 0.00 0.00 0.00 100 1009.7
20260505213904 64 0.0 0.0 0.00 0.00 0.00 100 1009.8
20260505213404 64 0.0 0.0 0.00 0.00 0.00 100 1009.8
20260505212904 64 0.0 0.0 0.00 0.00 0.00 100 1009.8
20260505212404 65 0.0 0.0 0.00 0.00 0.00 100 1009.9
20260505211905 65 0.0 0.0 0.00 0.00 0.00 100 1009.7
20260505211405 65 0.0 0.0 0.00 0.00 0.00 100 1009.8
20260505210905 66 0.0 0.0 0.00 0.00 0.00 100 1009.8
20260505210404 66 0.0 0.0 0.00 0.00 0.00 100 1009.9
20260505205911 66 0.0 0.0 0.00 0.00 0.00 100 1009.9
20260505204910 66 0.0 0.0 0.00 0.00 0.00 100 1009.8
20260505203404 66 0.0 0.0 0.00 0.00 0.00 100 1009.8
20260505202910 66 0.0 0.0 0.00 0.00 0.00 100 1009.9
20260505201909 66 0.0 0.0 0.00 0.00 0.00 100 1009.9
20260505195905 68 0.0 0.0 0.00 0.00 0.00 100 1009.9
20260505195405 68 0.0 0.0 0.00 0.00 0.00 100 1009.9
20260505194910 68 0.0 0.0 0.00 0.00 0.00 100 1009.9
20260505193905 68 0.0 0.0 0.00 0.00 0.00 100 1009.8
20260505193409 68 0.0 0.0 0.00 0.00 0.00 100 1009.8
20260505192404 68 0.0 0.0 0.00 0.00 0.00 100 1009.7
20260505191905 68 0.0 0.0 0.00 0.00 0.00 100 1009.7
20260505191404 68 0.0 0.0 0.00 0.00 0.00 100 1009.7
20260505190905 68 0.0 0.0 0.00 0.00 0.00 100 1009.6
20260505190405 68 0.0 0.0 0.00 0.00 0.00 100 1009.6
20260505185905 68 0.0 0.0 0.00 0.00 0.00 100 1009.6
20260505185404 68 0.0 0.0 0.00 0.00 0.00 100 1009.6
20260505184904 69 0.0 0.0 0.00 0.00 0.00 100 1009.6
20260505184405 69 0.0 0.0 0.00 0.00 0.00 100 1009.6
20260505183904 69 0.0 0.0 0.00 0.00 0.00 100 1009.6
20260505183404 69 0.0 0.0 0.00 0.00 0.00 100 1009.5
20260505182904 69 0.0 0.0 0.00 0.00 0.00 100 1009.5
20260505182404 70 0.0 0.0 0.00 0.00 0.00 100 1009.5
20260505181909 70 0.0 0.0 0.00 0.00 0.00 100 1009.5
20260505180905 71 0.0 0.0 0.00 0.00 0.00 100 1009.4
20260505180404 71 0.0 0.0 0.00 0.00 0.00 100 1009.2
20260505175909 71 0.0 0.0 0.00 0.00 0.00 100 1009.1
20260505174905 72 0.0 0.0 0.00 0.00 0.00 100 1009.1
20260505174405 73 0.0 0.0 0.00 0.00 0.00 100 1009.0
20260505173910 74 0.0 0.0 0.00 0.00 0.00 100 1009.0
20260505173409 74 0.0 0.0 0.00 0.00 0.00 100 1009.0
20260505172404 76 0.0 0.0 0.00 0.00 0.00 100 1008.9
20260505171904 77 0.0 0.0 0.00 0.00 0.00 100 1008.9
20260505171406 77 0.0 0.0 0.00 0.00 0.00 100 1008.9
20260505170905 78 0.0 0.0 0.00 0.00 0.00 100 1008.7
20260505170404 79 0.0 0.0 0.00 0.00 0.00 100 1008.7
20260505165905 81 0.0 0.0 0.00 0.00 0.00 100 1008.6
20260505165404 82 0.0 0.0 0.00 0.00 0.00 100 1008.5
20260505164905 83 0.0 0.0 0.00 0.00 0.00 100 1008.4
20260505164404 85 0.0 0.0 0.00 0.00 0.00 100 1008.3
20260505163909 87 0.0 0.0 0.00 0.00 0.00 100 1008.2
20260505162904 98 0.0 0.0 0.00 0.00 0.00 100 1007.6
20260505162405 104 0.0 0.0 0.00 0.00 0.00 100 1007.4
20260505161905 107 0.0 0.0 0.00 0.00 0.00 100 1007.2
20260505161404 108 0.0 0.0 0.00 0.00 0.00 100 1007.2
20260505160904 109 0.0 0.0 0.00 0.00 0.00 100 1007.2
20260505160404 110 0.0 0.0 0.00 0.00 0.00 100 1007.0
20260505152904 115 0.0 0.0 0.00 0.00 0.00 100 1007.1
20260505152404 115 0.0 0.0 0.00 0.00 0.00 100 1007.1
20260505151909 114 0.0 0.0 0.00 0.00 0.00 100 1007.2
20260505150906 117 0.0 0.0 0.00 0.00 0.00 100 1007.0
20260505150404 116 0.0 0.0 0.00 0.00 0.00 100 1007.1
20260505124904 111 0.0 0.0 0.00 0.00 0.00 100 1008.3
20260505124405 110 0.0 0.0 0.00 0.00 0.00 100 1008.4
20260505123906 112 0.0 0.0 0.00 0.00 0.00 100 1008.3
20260505123411 110 0.0 0.0 0.00 0.00 0.00 100 1008.5